Location: Spondin
(51.8528°N, 111.6118°W)
Time: 17:09:37
(UTC+00:00)

Vanguard 2 Rocket - Pass Details

Date: 03 June 2022
Orbit: 553 x 3323 km, 32.9° (Epoch: 02 July)

Event Time Altitude Azimuth Distance (km) Brightness Sun altitude
Rises 18:59:57 0° 233° (SW) 6,866 11.5 60.1°
Reaches altitude 10° 19:04:47 10° 226° (SW) 6,064 11.5 60.3°
Maximum altitude 19:21:55 38° 167° (SSE) 4,305 11.8 60.5°
Drops below altitude 10° 19:37:28 10° 108° (ESE) 5,533 11.1 60.4°
Sets 19:41:36 0° 101° (E) 6,235 11.2 60.4°
